Dyersburg, TN

7:09 AM CDT on May 25, 2018 (GMT -0500)
Dyersburg Municipal

Weather History for KDYR - May, 2014

Change the Weather History Date:

Friday, May 23, 2014

  Actual Average Record
Temperature  
Mean Temperature 78 °F -  
Max Temperature 89 °F 77 °F 89 °F (1998)
Min Temperature 66 °F 60 °F 48 °F (1997)
Cooling Degree Days 12    
Growing Degree Days 28 (Base 50)    
Moisture  
Dew Point 59 °F    
Average Humidity 55    
Maximum Humidity 73    
Minimum Humidity 33    
Precipitation  
Precipitation 0.00 in - - ()
Sea Level Pressure  
Sea Level Pressure 30.07 in    
Wind  
Wind Speed 4 mph (WSW)    
Max Wind Speed 12 mph    
Max Gust Speed 16 mph    
Visibility 10 miles    
Events      
Averages and records for this station are not official NWS values.
T = Trace of Precipitation, MM = Missing Value Source: NWS Daily Summary

Daily Weather History Graph

Daily Weather History Graph

Search for Another Location

Airport or City:

Astronomy

May. 23, 2014 Rise Set
Actual Time 5:46 AM CDT 8:02 PM CDT
Civil Twilight 5:17 AM CDT 8:32 PM CDT
Nautical Twilight 4:41 AM CDT 9:07 PM CDT
Astronomical Twilight 4:02 AM CDT 9:46 PM CDT
Moon 2:30 AM CDT (5/23) 3:04 PM CDT (5/23)
Length of Visible Light 15h 14m
Length of Day
14h 16m
Waning Crescent, 27% of the Moon is Illuminated
May 23
Waning Crescent
May 28
New
Jun 5
First Quarter
Jun 12
Full
Jun 19
Last Quarter

Hourly Weather History & Observations

Time (CDT) Temp. Heat Index Dew Point Humidity Pressure Visibility Wind Dir Wind Speed Gust Speed Precip Events Conditions
12:15 AM 71.6 °F - 57.2 °F 60% 30.07 in 10.0 mi WSW 3.5 mph - N/A   Scattered Clouds
12:35 AM 71.6 °F - 59.0 °F 64% 30.07 in 10.0 mi SW 3.5 mph - N/A   Partly Cloudy
12:55 AM 71.6 °F - 57.2 °F 60% 30.07 in 10.0 mi SW 3.5 mph - N/A   Clear
1:15 AM 71.6 °F - 57.2 °F 60% 30.07 in 10.0 mi Calm Calm - N/A   Clear
1:35 AM 71.6 °F - 57.2 °F 60% 30.08 in 10.0 mi Calm Calm - N/A   Clear
1:55 AM 69.8 °F - 57.2 °F 64% 30.08 in 10.0 mi Calm Calm - N/A   Clear
2:15 AM 69.8 °F - 57.2 °F 64% 30.08 in 10.0 mi Calm Calm - N/A   Clear
2:35 AM 68.0 °F - 57.2 °F 68% 30.08 in 10.0 mi Calm Calm - N/A   Partly Cloudy
2:55 AM 69.8 °F - 57.2 °F 64% 30.07 in 10.0 mi SW 3.5 mph - N/A   Clear
3:15 AM 68.0 °F - 57.2 °F 68% 30.06 in 10.0 mi Calm Calm - N/A   Clear
3:55 AM 69.8 °F - 57.2 °F 64% 30.07 in 10.0 mi Calm Calm - N/A   Clear
4:15 AM 68.0 °F - 57.2 °F 68% 30.07 in 10.0 mi NW 3.5 mph - N/A   Clear
4:35 AM 68.0 °F - 57.2 °F 68% 30.08 in 10.0 mi NNW 4.6 mph - N/A   Clear
4:55 AM 68.0 °F - 57.2 °F 68% 30.08 in 10.0 mi Calm Calm - N/A   Clear
5:15 AM 66.2 °F - 57.2 °F 73% 30.08 in 10.0 mi SSW 4.6 mph - N/A   Partly Cloudy
5:35 AM 66.2 °F - 55.4 °F 68% 30.08 in 10.0 mi SSW 3.5 mph - N/A   Clear
5:55 AM 66.2 °F - 57.2 °F 73% 30.08 in 9.0 mi Calm Calm - N/A   Clear
6:15 AM 66.2 °F - 55.4 °F 68% 30.08 in 10.0 mi Calm Calm - N/A   Clear
6:35 AM 66.2 °F - 57.2 °F 73% 30.09 in 10.0 mi Calm Calm - N/A   Clear
6:55 AM 68.0 °F - 57.2 °F 68% 30.09 in 10.0 mi Calm Calm - N/A   Clear
7:15 AM 69.8 °F - 60.8 °F 73% 30.09 in 10.0 mi Calm Calm - N/A   Clear
7:35 AM 73.4 °F - 60.8 °F 65% 30.09 in 10.0 mi Calm Calm - N/A   Clear
7:55 AM 73.4 °F - 60.8 °F 65% 30.09 in 10.0 mi SW 3.5 mph - N/A   Clear
8:15 AM 75.2 °F - 60.8 °F 61% 30.09 in 10.0 mi SW 3.5 mph - N/A   Clear
8:35 AM 77.0 °F - 60.8 °F 57% 30.10 in 10.0 mi Calm Calm - N/A   Clear
8:55 AM 78.8 °F - 62.6 °F 57% 30.10 in 10.0 mi West 5.8 mph - N/A   Clear
9:15 AM 80.6 °F 81.8 °F 62.6 °F 54% 30.09 in 10.0 mi WSW 5.8 mph - N/A   Clear
9:35 AM 80.6 °F 81.8 °F 62.6 °F 54% 30.09 in 10.0 mi West 5.8 mph - N/A   Clear
9:55 AM 82.4 °F 83.4 °F 62.6 °F 51% 30.09 in 10.0 mi West 6.9 mph - N/A   Clear
10:15 AM 82.4 °F 83.4 °F 62.6 °F 51% 30.09 in 10.0 mi WSW 6.9 mph - N/A   Clear
10:35 AM 82.4 °F 83.4 °F 62.6 °F 51% 30.09 in 10.0 mi WSW 6.9 mph - N/A   Clear
10:55 AM 84.2 °F 85.0 °F 62.6 °F 48% 30.09 in 10.0 mi WSW 9.2 mph - N/A   Clear
11:35 AM 86.0 °F 86.6 °F 62.6 °F 45% 30.10 in 10.0 mi WSW 11.5 mph 16.1 mph N/A   Partly Cloudy
11:55 AM 84.2 °F 85.0 °F 62.6 °F 48% 30.09 in 10.0 mi SW 8.1 mph - N/A   Clear
12:15 PM 87.8 °F 87.6 °F 60.8 °F 40% 30.09 in 10.0 mi WSW 6.9 mph - N/A   Partly Cloudy
12:35 PM 87.8 °F 87.6 °F 60.8 °F 40% 30.09 in 10.0 mi SW 9.2 mph - N/A   Partly Cloudy
12:55 PM 87.8 °F 87.6 °F 60.8 °F 40% 30.09 in 10.0 mi SW 10.4 mph - N/A   Clear
1:15 PM 89.6 °F 88.9 °F 59.0 °F 36% 30.08 in 10.0 mi South 8.1 mph - N/A   Scattered Clouds
1:55 PM 89.6 °F 88.1 °F 57.2 °F 33% 30.07 in 10.0 mi WSW 6.9 mph - N/A   Partly Cloudy
2:15 PM 89.6 °F 88.1 °F 57.2 °F 33% 30.07 in 10.0 mi WSW 8.1 mph - N/A   Partly Cloudy
2:35 PM 87.8 °F 86.5 °F 57.2 °F 35% 30.06 in 10.0 mi WSW 5.8 mph - N/A   Scattered Clouds
2:55 PM 86.0 °F 84.5 °F 55.4 °F 35% 30.06 in 10.0 mi WSW 6.9 mph - N/A   Scattered Clouds
3:15 PM 87.8 °F 86.1 °F 55.4 °F 33% 30.06 in 10.0 mi WSW 6.9 mph - N/A   Mostly Cloudy
3:35 PM 87.8 °F 86.5 °F 57.2 °F 35% 30.05 in 10.0 mi WSW 6.9 mph - N/A   Mostly Cloudy
3:55 PM 89.6 °F 88.1 °F 57.2 °F 33% 30.05 in 10.0 mi WSW 5.8 mph - N/A   Scattered Clouds
4:15 PM 87.8 °F 86.5 °F 57.2 °F 35% 30.04 in 10.0 mi NW 5.8 mph - N/A   Mostly Cloudy
4:35 PM 84.2 °F 84.4 °F 60.8 °F 45% 30.04 in 10.0 mi North 5.8 mph - N/A   Mostly Cloudy
4:55 PM 84.2 °F 84.4 °F 60.8 °F 45% 30.04 in 10.0 mi North 6.9 mph - N/A   Mostly Cloudy
5:15 PM 84.2 °F 84.4 °F 60.8 °F 45% 30.03 in 10.0 mi NE 6.9 mph - N/A   Mostly Cloudy
5:35 PM 84.2 °F 84.4 °F 60.8 °F 45% 30.03 in 10.0 mi ENE 6.9 mph - N/A   Overcast
5:55 PM 82.4 °F 82.9 °F 60.8 °F 48% 30.03 in 10.0 mi ENE 6.9 mph - N/A   Overcast
6:15 PM 82.4 °F 82.9 °F 60.8 °F 48% 30.03 in 10.0 mi ENE 6.9 mph - N/A   Overcast
6:35 PM 80.6 °F 81.5 °F 60.8 °F 51% 30.03 in 10.0 mi ENE 5.8 mph - N/A   Mostly Cloudy
6:55 PM 80.6 °F 81.5 °F 60.8 °F 51% 30.04 in 10.0 mi NE 9.2 mph - N/A   Mostly Cloudy
7:15 PM 80.6 °F 81.5 °F 60.8 °F 51% 30.04 in 10.0 mi Calm Calm - N/A   Overcast
7:35 PM 80.6 °F 81.5 °F 60.8 °F 51% 30.05 in 10.0 mi ENE 5.8 mph - N/A   Overcast
7:55 PM 80.6 °F 81.5 °F 60.8 °F 51% 30.05 in 10.0 mi East 3.5 mph - N/A   Partly Cloudy
8:15 PM 78.8 °F - 59.0 °F 51% 30.05 in 10.0 mi Calm Calm - N/A   Partly Cloudy
8:35 PM 78.8 °F - 59.0 °F 51% 30.05 in 10.0 mi East 5.8 mph - N/A   Clear
8:55 PM 78.8 °F - 59.0 °F 51% 30.06 in 10.0 mi East 3.5 mph - N/A   Clear
9:15 PM 78.8 °F - 59.0 °F 51% 30.06 in 10.0 mi East 5.8 mph - N/A   Clear
9:35 PM 75.2 °F - 60.8 °F 61% 30.07 in 10.0 mi ENE 4.6 mph - N/A   Clear
9:55 PM 75.2 °F - 60.8 °F 61% 30.08 in 10.0 mi ENE 3.5 mph - N/A   Clear
10:15 PM 75.2 °F - 60.8 °F 61% 30.08 in 10.0 mi ENE 4.6 mph - N/A   Clear
10:35 PM 75.2 °F - 60.8 °F 61% 30.08 in 10.0 mi ENE 4.6 mph - N/A   Clear
10:55 PM 73.4 °F - 60.8 °F 65% 30.08 in 10.0 mi ENE 3.5 mph - N/A   Clear
11:15 PM 73.4 °F - 60.8 °F 65% 30.08 in 10.0 mi ENE 4.6 mph - N/A   Clear
11:35 PM 73.4 °F - 60.8 °F 65% 30.08 in 10.0 mi ENE 4.6 mph - N/A   Clear
11:55 PM 73.4 °F - 60.8 °F 65% 30.08 in 10.0 mi ENE 5.8 mph - N/A   Clear